CZ-6A DEB, 56614

Orbit data source: Space-Track

CZ-6A DEB, 56614 is space debris in SSO originally from a launch on Fri, 11 Nov 2022 UTC launched from the Taiyaun Space Center, China (TSC). Debris objects in space refer to the collection of defunct objects orbiting the Earth. Examples of debris include non-operational satellites, rocket bodies, and fragments generated from explosions, collisions, or faulty payload assembly.

Loading next visibility...
Identifier
56614, 2022-151AEN
Orbit
SSO
Country
Flag of CNCN / PRC
Related business
Manufacturer
SAST
Mission
Spacecraft
Bus & Motor
Unknown
Mass
Unknown
Launch date (UTC)
2022-11-11 (3 years ago)
Launch vehicle
Unknown
Launch site
Taiyaun Space Center, China (TSC)
Object type
Payload
Rocket body
Debris
Shape & HBR
Unknown shape, 0.1 m
Radar Cross Section
Small (<0.1 m²)

Expand to show TLE details & history
Last TLE update: 2 days ago

TLE from 2 days ago
0 CZ-6A DEB
1 56614U 22151AEN 25350.15534945  .00000383  00000-0  29432-3 0  9991
2 56614  98.8415 316.4888 0116208 200.3294 159.3222 13.95771736134635
Epoch: 2025-12-16T03:43Z
TLE epoch observation values (Epoch: 2025-12-16T03:43:42.192Z)
Latitude
-0.00005°
Longitude
175.51939°
Altitude
990.709 km
Speed
7.316 km/s
True Right ascension
21h 05m 57s
True Declination
0° 00' 00"
Sunlit
Object was in daylight at epoch
Visualization orbit readout
Latitude
Unknown
Longitude
Unknown
Altitude
Unknown
Speed
Unknown
Apparent Right ascension
Unknown
Apparent Declination
Unknown
Sunlit
N/A
Visualization observer readout
Local Sidereal Time
02:05:58
Azimuth
Unknown
Elevation
Unknown
Doppler factor
Unknown
Orbital elements
Apogee altitude
990.314 km
Perigee altitude
821.027 km
Semi-major axis
7,283.808 km
Eccentricity
0.01162
Inclination
98.8415°
RAAN
316.4888°
Arg. of periapsis
200.3294°
True anomaly
159.78611°
Mean anomaly
159.3222°
Eccentric anomaly
159.55478°
Mean motion
3.49145 °/min
Orbital period
103.11 mins
BSTAR
0.00029432
Loading maneuver chart data...
Computing Atmospheric mass density...
Loading historical data...
Loading historical data...
Loading historical data...
Loading historical data...
Loading historical data...
Loading historical data...
Loading historical data...

Documentation

Showing up to 5 results
|